EDT,Max TemperatureF,Mean TemperatureF,Min TemperatureF,Max Dew PointF,MeanDew PointF,Min DewpointF,Max Humidity, Mean Humidity, Min Humidity, Max Sea Level PressureIn, Mean Sea Level PressureIn, Min Sea Level PressureIn, Max VisibilityMiles, Mean VisibilityMiles, Min VisibilityMiles, Max Wind SpeedMPH, Mean Wind SpeedMPH, Max Gust SpeedMPH,PrecipitationIn, CloudCover, Events, WindDirDegrees
2011-9-1,82,71,60,68,64,59,100,80,54,30.04,29.99,29.89,10,9,1,9,4,,0.00,1,,85
2011-9-2,86,78,69,73,68,64,94,71,54,29.89,29.82,29.76,10,10,5,25,8,34,0.00,2,Rain,209
2011-9-3,73,68,62,68,63,59,100,85,73,29.97,29.89,29.80,10,9,2,12,4,,0.00,5,Rain,111
2011-9-4,69,62,55,68,57,48,94,78,64,30.00,29.83,29.74,10,10,5,23,13,31,0.00,7,Rain,286
2011-9-5,57,52,48,48,42,39,93,69,51,30.19,30.13,30.03,10,9,3,20,13,28,0.00,6,Rain,7
2011-9-6,62,52,41,48,44,39,100,76,55,30.28,30.24,30.19,10,9,0,10,4,16,0.00,1,Fog,36
2011-9-7,66,54,41,52,44,39,100,69,40,30.29,30.25,30.20,10,10,7,12,5,16,0.00,0,,12
2011-9-8,73,63,53,61,55,50,94,72,52,30.22,30.16,30.09,10,10,10,13,7,20,0.00,0,,19
2011-9-9,75,62,50,61,56,50,100,82,44,30.08,30.04,29.98,10,10,4,9,2,,0.00,0,,337
2011-9-10,78,66,53,63,58,54,100,79,47,30.07,30.03,30.01,10,10,4,13,2,,0.00,0,,54
2011-9-11,80,71,62,59,57,48,88,65,32,30.01,29.95,29.88,10,10,10,16,7,22,0.00,0,,209
2011-9-12,82,71,60,64,59,52,100,68,37,29.91,29.85,29.71,10,10,7,16,7,23,0.00,1,,215
2011-9-13,77,65,53,61,49,43,78,66,52,29.93,29.81,29.60,10,10,7,31,15,38,0.00,6,Rain,307
2011-9-14,59,54,48,50,40,32,82,60,47,30.12,30.00,29.87,10,10,10,21,12,28,0.00,4,,295
2011-9-15,55,50,46,41,37,34,76,62,50,30.32,30.25,30.15,10,10,10,20,13,26,0.00,5,Rain,318
2011-9-16,59,48,37,43,38,34,93,67,48,30.44,30.39,30.34,10,10,10,12,5,16,0.00,2,,199
2011-9-17,62,50,39,45,40,36,93,68,37,30.43,30.38,30.33,10,10,10,10,5,,0.00,1,,95
2011-9-18,71,58,44,46,43,39,93,63,31,30.36,30.28,30.12,10,10,10,16,7,21,0.00,0,,136
2011-9-19,60,56,53,59,55,50,100,89,72,30.05,29.91,29.82,10,8,2,15,7,20,0.00,7,Rain,232
2011-9-20,69,58,48,57,50,46,100,78,46,30.07,30.03,29.97,10,7,0,10,3,17,0.00,3,Fog,157
2011-9-21,68,64,59,59,54,48,100,76,49,29.96,29.85,29.79,10,9,4,22,10,32,0.00,6,Rain,165
2011-9-22,59,56,53,54,50,45,100,80,67,30.08,29.98,29.88,10,10,3,15,10,23,0.00,8,Rain,260
2011-9-23,59,52,46,48,46,45,94,76,59,30.14,30.11,30.05,10,10,10,9,3,,0.00,5,,314
2011-9-24,59,55,51,54,52,46,100,89,72,30.07,30.03,29.99,10,9,4,12,6,17,0.00,7,Rain,120
2011-9-25,68,59,50,55,52,48,100,82,64,30.14,30.08,29.99,10,10,10,16,7,21,0.00,1,,91
2011-9-26,66,62,57,63,58,52,94,90,77,29.98,29.87,29.78,10,9,4,15,10,24,0.00,6,Rain,87
2011-9-27,62,58,53,55,54,54,100,91,72,29.88,29.85,29.81,10,7,0,12,6,17,0.00,5,Fog-Rain,334
2011-9-28,64,56,48,59,53,48,100,88,68,29.88,29.85,29.80,10,9,1,7,2,,0.00,5,,103
2011-9-29,60,55,50,55,52,50,100,93,77,29.79,29.58,29.37,10,8,0,14,3,18,0.00,5,Fog-Rain,145
2011-9-30,55,48,41,54,41,34,100,80,62,30.07,29.82,29.47,10,9,3,29,19,43,0.00,8,Rain,356